Location: Unspecified
(41.1637°N, 24.2901°E)
Time: 21:55:39
(UTC+02:00)

ISS - Pass Details

Date: 21 September 2019
Orbit: 411 x 421 km, 51.6° (Epoch: 19 September)

Event Time Altitude Azimuth Distance (km) Brightness Sun altitude
Rises 20:35:32 0° 266° (W) 2,338 1.0 -25.1°
Reaches altitude 10° 20:37:52 10° 280° (W) 1,478 0.0 -25.5°
Enters shadow 20:40:17 24° 326° (NW) 897 -1.6 -25.9°
